"Sample Date","Sample Time","Sample Value","Units","Flow Rate","Laser Status","Micron Size 0","Counts/Channel 0","Micron Size 1","Counts/Channel 1","Micron Size 2","Counts/Channel 2","Micron Size 3","Counts/Channel 3","Micron Size 4","Counts/Channel 4","Micron Size 5","Counts/Channel 5","Micron Size 6","Counts/Channel 6","Micron Size 7","Counts/Channel 7","Micron Size 8","Counts/Channel 8","Micron Size 9","Counts/Channel 9","Micron Size 10","Counts/Channel 10","Micron Size 11","Counts/Channel 11","Micron Size 12","Counts/Channel 12","Micron Size 13","Counts/Channel 13","Micron Size 14","Counts/Channel 14","Micron Size 15","Counts/Channel 15","Micron Size 16","Counts/Channel 16","Micron Size 17","Counts/Channel 17","Micron Size 18","Counts/Channel 18","Micron Size 19","Counts/Channel 19","Micron Size 20","Counts/Channel 20","Micron Size 21","Counts/Channel 21","Micron Size 22","Counts/Channel 22","Micron Size 23","Counts/Channel 23","Micron Size 24","Counts/Channel 24","Micron Size 25","Counts/Channel 25","Micron Size 26","Counts/Channel 26","Micron Size 27","Counts/Channel 27","Micron Size 28","Counts/Channel 28","Micron Size 29","Counts/Channel 29","Micron Size 30","Counts/Channel 30","Micron Size 31","Counts/Channel 31"
"03/03/08","15:00:04",41113.000,"cc",28376.160,1,0.100,37957.000,0.200,1958.000,0.300,430.000,0.500,545.000,1.000,223.000,5.000,0
"03/03/08","15:00:10",41524.000,"cc",28305.107,1,0.100,38466.000,0.200,1861.000,0.300,459.000,0.500,516.000,1.000,222.000,5.000,0
"03/03/08","15:00:16",41210.000,"cc",28324.313,1,0.100,38201.000,0.200,1818.000,0.300,483.000,0.500,485.000,1.000,223.000,5.000,0
"03/03/08","15:00:22",41803.000,"cc",28296.266,1,0.100,38618.000,0.200,1915.000,0.300,475.000,0.500,569.000,1.000,226.000,5.000,0
"03/03/08","15:00:28",41353.000,"cc",28270.004,1,0.100,38265.000,0.200,1850.000,0.300,456.000,0.500,527.000,1.000,255.000,5.000,0
"03/03/08","15:00:34",41507.000,"cc",28295.406,1,0.100,38369.000,0.200,1896.000,0.300,439.000,0.500,547.000,1.000,256.000,5.000,0
"03/03/08","15:00:40",41321.000,"cc",28342.133,1,0.100,38283.000,0.200,1830.000,0.300,505.000,0.500,465.000,1.000,238.000,5.000,0
"03/03/08","15:00:46",41518.000,"cc",28336.002,1,0.100,38422.000,0.200,1920.000,0.300,429.000,0.500,518.000,1.000,229.000,5.000,0
"03/03/08","15:00:52",41615.000,"cc",28300.059,1,0.100,38575.000,0.200,1804.000,0.300,493.000,0.500,489.000,1.000,254.000,5.000,0
"03/03/08","15:00:58",41580.000,"cc",28326.807,1,0.100,38459.000,0.200,1848.000,0.300,443.000,0.500,543.000,1.000,287.000,5.000,0
"03/03/08","15:01:04",41666.000,"cc",28289.072,1,0.100,38577.000,0.200,1846.000,0.300,486.000,0.500,539.000,1.000,218.000,5.000,0
"03/03/08","15:01:10",41677.000,"cc",28356.606,1,0.100,38498.000,0.200,1961.000,0.300,450.000,0.500,542.000,1.000,226.000,5.000,0
"03/03/08","15:01:16",41483.000,"cc",28410.795,1,0.100,38440.000,0.200,1835.000,0.300,468.000,0.500,526.000,1.000,214.000,5.000,0
"03/03/08","15:01:22",41753.000,"cc",28263.363,1,0.100,38749.000,0.200,1771.000,0.300,451.000,0.500,570.000,1.000,212.000,5.000,0
"03/03/08","15:01:28",41367.000,"cc",28271.889,1,0.100,38306.000,0.200,1851.000,0.300,455.000,0.500,522.000,1.000,233.000,5.000,0
"03/03/08","15:01:34",41422.000,"cc",28320.209,1,0.100,38333.000,0.200,1831.000,0.300,494.000,0.500,547.000,1.000,217.000,5.000,0
"03/03/08","15:01:40",41817.000,"cc",28323.863,1,0.100,38722.000,0.200,1898.000,0.300,463.000,0.500,525.000,1.000,209.000,5.000,0
"03/03/08","15:01:46",41464.000,"cc",28373.121,1,0.100,38373.000,0.200,1859.000,0.300,445.000,0.500,533.000,1.000,254.000,5.000,0
"03/03/08","15:01:52",41984.000,"cc",28282.842,1,0.100,38903.000,0.200,1833.000,0.300,462.000,0.500,541.000,1.000,245.000,5.000,0
"03/03/08","15:01:58",41840.000,"cc",28312.285,1,0.100,38602.000,0.200,1930.000,0.300,495.000,0.500,566.000,1.000,247.000,5.000,0
"03/03/08","15:02:04",41493.000,"cc",28334.994,1,0.100,38422.000,0.200,1829.000,0.300,427.000,0.500,563.000,1.000,252.000,5.000,0
"03/03/08","15:02:10",41595.000,"cc",28337.779,1,0.100,38493.000,0.200,1865.000,0.300,443.000,0.500,560.000,1.000,234.000,5.000,0
"03/03/08","15:02:16",41785.000,"cc",28306.551,1,0.100,38609.000,0.200,1905.000,0.300,497.000,0.500,543.000,1.000,231.000,5.000,0
"03/03/08","15:02:22",41879.000,"cc",28278.231,1,0.100,38764.000,0.200,1886.000,0.300,475.000,0.500,550.000,1.000,204.000,5.000,0
"03/03/08","15:02:28",41477.000,"cc",28353.170,1,0.100,38352.000,0.200,1885.000,0.300,443.000,0.500,562.000,1.000,235.000,5.000,0
"03/03/08","15:02:34",41481.000,"cc",28315.518,1,0.100,38393.000,0.200,1894.000,0.300,448.000,0.500,538.000,1.000,208.000,5.000,0
"03/03/08","15:02:40",41935.000,"cc",28320.010,1,0.100,38861.000,0.200,1867.000,0.300,435.000,0.500,536.000,1.000,236.000,5.000,0
"03/03/08","15:02:46",41937.000,"cc",28334.305,1,0.100,38834.000,0.200,1869.000,0.300,470.000,0.500,543.000,1.000,221.000,5.000,0
"03/03/08","15:02:52",41811.000,"cc",28300.000,1,0.100,38793.000,0.200,1808.000,0.300,474.000,0.500,508.000,1.000,228.000,5.000,0
"03/03/08","15:02:58",42221.000,"cc",28315.565,1,0.100,38982.000,0.200,1976.000,0.300,473.000,0.500,545.000,1.000,245.000,5.000,0
"03/03/08","15:03:04",41846.000,"cc",28324.598,1,0.100,38755.000,0.200,1892.000,0.300,433.000,0.500,539.000,1.000,227.000,5.000,0
"03/03/08","15:03:10",41815.000,"cc",28286.414,1,0.100,38633.000,0.200,1936.000,0.300,447.000,0.500,567.000,1.000,232.000,5.000,0
"03/03/08","15:03:16",41814.000,"cc",28300.805,1,0.100,38725.000,0.200,1807.000,0.300,494.000,0.500,531.000,1.000,257.000,5.000,0
"03/03/08","15:03:22",41726.000,"cc",28312.574,1,0.100,38565.000,0.200,1917.000,0.300,465.000,0.500,526.000,1.000,252.000,5.000,1.000
"03/03/08","15:03:28",41860.000,"cc",28318.988,1,0.100,38795.000,0.200,1840.000,0.300,485.000,0.500,529.000,1.000,211.000,5.000,0
"03/03/08","15:03:34",41507.000,"cc",28324.066,1,0.100,38393.000,0.200,1894.000,0.300,457.000,0.500,549.000,1.000,214.000,5.000,0
"03/03/08","15:03:40",41780.000,"cc",28303.356,1,0.100,38652.000,0.200,1863.000,0.300,464.000,0.500,574.000,1.000,227.000,5.000,0
"03/03/08","15:03:46",41916.000,"cc",28286.307,1,0.100,38821.000,0.200,1859.000,0.300,455.000,0.500,530.000,1.000,251.000,5.000,0
"03/03/08","15:03:52",41596.000,"cc",28280.990,1,0.100,38496.000,0.200,1897.000,0.300,425.000,0.500,552.000,1.000,226.000,5.000,0
"03/03/08","15:03:58",41750.000,"cc",28361.842,1,0.100,38522.000,0.200,1957.000,0.300,499.000,0.500,526.000,1.000,246.000,5.000,0
"03/03/08","15:04:04",42033.000,"cc",28358.404,1,0.100,38878.000,0.200,1891.000,0.300,487.000,0.500,550.000,1.000,227.000,5.000,0
"03/03/08","15:04:10",41875.000,"cc",28377.654,1,0.100,38826.000,0.200,1868.000,0.300,452.000,0.500,515.000,1.000,214.000,5.000,0
"03/03/08","15:04:16",41857.000,"cc",28254.594,1,0.100,38809.000,0.200,1821.000,0.300,448.000,0.500,548.000,1.000,231.000,5.000,0
"03/03/08","15:04:22",41766.000,"cc",28287.758,1,0.100,38607.000,0.200,1840.000,0.300,502.000,0.500,564.000,1.000,253.000,5.000,0
"03/03/08","15:04:28",41479.000,"cc",28284.447,1,0.100,38421.000,0.200,1858.000,0.300,478.000,0.500,500.000,1.000,222.000,5.000,0
"03/03/08","15:04:34",42030.000,"cc",28348.152,1,0.100,38929.000,0.200,1820.000,0.300,485.000,0.500,544.000,1.000,252.000,5.000,0
"03/03/08","15:04:40",41729.000,"cc",28380.902,1,0.100,38586.000,0.200,1863.000,0.300,471.000,0.500,563.000,1.000,246.000,5.000,0
"03/03/08","15:04:46",41854.000,"cc",28261.143,1,0.100,38759.000,0.200,1882.000,0.300,430.000,0.500,557.000,1.000,226.000,5.000,0
"03/03/08","15:04:52",41840.000,"cc",28295.414,1,0.100,38744.000,0.200,1820.000,0.300,490.000,0.500,533.000,1.000,253.000,5.000,0
"03/03/08","15:04:58",41422.000,"cc",28304.570,1,0.100,38398.000,0.200,1844.000,0.300,435.000,0.500,529.000,1.000,216.000,5.000,0
"03/03/08","15:05:04",41919.000,"cc",28360.242,1,0.100,38870.000,0.200,1861.000,0.300,453.000,0.500,530.000,1.000,205.000,5.000,0
"03/03/08","15:05:10",41832.000,"cc",28307.115,1,0.100,38708.000,0.200,1916.000,0.300,455.000,0.500,540.000,1.000,213.000,5.000,0
"03/03/08","15:05:16",41820.000,"cc",28272.393,1,0.100,38602.000,0.200,1961.000,0.300,463.000,0.500,560.000,1.000,234.000,5.000,0
"03/03/08","15:05:22",42231.000,"cc",28310.602,1,0.100,38993.000,0.200,1930.000,0.300,487.000,0.500,573.000,1.000,248.000,5.000,0
"03/03/08","15:05:28",42084.000,"cc",28335.045,1,0.100,38995.000,0.200,1877.000,0.300,454.000,0.500,531.000,1.000,227.000,5.000,0
"03/03/08","15:05:34",41793.000,"cc",28292.676,1,0.100,38692.000,0.200,1862.000,0.300,453.000,0.500,559.000,1.000,227.000,5.000,0
"03/03/08","15:05:40",41682.000,"cc",28324.830,1,0.100,38545.000,0.200,1937.000,0.300,468.000,0.500,521.000,1.000,211.000,5.000,0
"03/03/08","15:05:46",42137.000,"cc",28359.678,1,0.100,38993.000,0.200,1916.000,0.300,479.000,0.500,522.000,1.000,227.000,5.000,0
"03/03/08","15:05:52",41595.000,"cc",28337.701,1,0.100,38528.000,0.200,1812.000,0.300,457.000,0.500,571.000,1.000,227.000,5.000,0
"03/03/08","15:05:58",41748.000,"cc",28282.289,1,0.100,38619.000,0.200,1880.000,0.300,471.000,0.500,544.000,1.000,234.000,5.000,0
"03/03/08","15:06:04",42113.000,"cc",28333.953,1,0.100,39043.000,0.200,1890.000,0.300,440.000,0.500,520.000,1.000,220.000,5.000,0
"03/03/08","15:06:10",42050.000,"cc",28367.402,1,0.100,38928.000,0.200,1913.000,0.300,473.000,0.500,519.000,1.000,217.000,5.000,0
"03/03/08","15:06:16",42084.000,"cc",28324.801,1,0.100,38902.000,0.200,1900.000,0.300,496.000,0.500,553.000,1.000,233.000,5.000,0
"03/03/08","15:06:22",42076.000,"cc",28300.186,1,0.100,38976.000,0.200,1892.000,0.300,443.000,0.500,543.000,1.000,222.000,5.000,0
"03/03/08","15:06:28",41591.000,"cc",28285.557,1,0.100,38519.000,0.200,1912.000,0.300,421.000,0.500,501.000,1.000,238.000,5.000,0
"03/03/08","15:06:34",41342.000,"cc",28340.953,1,0.100,38112.000,0.200,2003.000,0.300,481.000,0.500,527.000,1.000,219.000,5.000,0
"03/03/08","15:06:40",41928.000,"cc",28245.879,1,0.100,38878.000,0.200,1836.000,0.300,436.000,0.500,566.000,1.000,212.000,5.000,0
"03/03/08","15:06:46",41607.000,"cc",28283.854,1,0.100,38485.000,0.200,1866.000,0.300,506.000,0.500,508.000,1.000,242.000,5.000,0
"03/03/08","15:06:52",42157.000,"cc",28344.813,1,0.100,39068.000,0.200,1872.000,0.300,464.000,0.500,523.000,1.000,230.000,5.000,0
"03/03/08","15:06:58",41885.000,"cc",28295.336,1,0.100,38759.000,0.200,1859.000,0.300,490.000,0.500,530.000,1.000,247.000,5.000,0
"03/03/08","15:07:04",42100.000,"cc",28329.453,1,0.100,38995.000,0.200,1860.000,0.300,440.000,0.500,576.000,1.000,229.000,5.000,0
"03/03/08","15:07:10",41989.000,"cc",28371.293,1,0.100,38859.000,0.200,1940.000,0.300,441.000,0.500,536.000,1.000,212.000,5.000,1.000
"03/03/08","15:07:16",41719.000,"cc",28263.783,1,0.100,38633.000,0.200,1892.000,0.300,419.000,0.500,544.000,1.000,231.000,5.000,0
"03/03/08","15:07:22",41909.000,"cc",28321.104,1,0.100,38814.000,0.200,1892.000,0.300,442.000,0.500,541.000,1.000,220.000,5.000,0
"03/03/08","15:07:28",42276.000,"cc",28309.023,1,0.100,39148.000,0.200,1901.000,0.300,444.000,0.500,551.000,1.000,232.000,5.000,0
"03/03/08","15:07:34",41942.000,"cc",28267.061,1,0.100,38723.000,0.200,1911.000,0.300,501.000,0.500,580.000,1.000,227.000,5.000,0
"03/03/08","15:07:40",41881.000,"cc",28302.779,1,0.100,38646.000,0.200,1935.000,0.300,506.000,0.500,574.000,1.000,220.000,5.000,0
"03/03/08","15:07:46",41893.000,"cc",28289.598,1,0.100,38845.000,0.200,1854.000,0.300,459.000,0.500,530.000,1.000,205.000,5.000,0
"03/03/08","15:07:52",42084.000,"cc",28412.828,1,0.100,38989.000,0.200,1901.000,0.300,455.000,0.500,512.000,1.000,227.000,5.000,0
"03/03/08","15:07:58",42039.000,"cc",28299.500,1,0.100,38909.000,0.200,1921.000,0.300,457.000,0.500,508.000,1.000,244.000,5.000,0
"03/03/08","15:08:04",41911.000,"cc",28318.854,1,0.100,38870.000,0.200,1805.000,0.300,451.000,0.500,529.000,1.000,256.000,5.000,0
"03/03/08","15:08:10",41860.000,"cc",28314.715,1,0.100,38654.000,0.200,1968.000,0.300,437.000,0.500,552.000,1.000,249.000,5.000,0
"03/03/08","15:08:16",41620.000,"cc",28338.631,1,0.100,38631.000,0.200,1816.000,0.300,438.000,0.500,497.000,1.000,238.000,5.000,0
"03/03/08","15:08:22",42017.000,"cc",28331.000,1,0.100,38882.000,0.200,1918.000,0.300,494.000,0.500,490.000,1.000,233.000,5.000,0
"03/03/08","15:08:28",41649.000,"cc",28276.957,1,0.100,38546.000,0.200,1819.000,0.300,478.000,0.500,575.000,1.000,231.000,5.000,0
"03/03/08","15:08:34",41850.000,"cc",28257.764,1,0.100,38716.000,0.200,1906.000,0.300,478.000,0.500,517.000,1.000,233.000,5.000,0
"03/03/08","15:08:40",41847.000,"cc",28322.998,1,0.100,38707.000,0.200,1948.000,0.300,437.000,0.500,536.000,1.000,219.000,5.000,0
"03/03/08","15:08:46",41833.000,"cc",28371.645,1,0.100,38836.000,0.200,1847.000,0.300,407.000,0.500,509.000,1.000,234.000,5.000,0
"03/03/08","15:08:52",41536.000,"cc",28316.783,1,0.100,38462.000,0.200,1922.000,0.300,452.000,0.500,486.000,1.000,214.000,5.000,0
"03/03/08","15:08:58",41964.000,"cc",28277.250,1,0.100,38877.000,0.200,1847.000,0.300,450.000,0.500,558.000,1.000,232.000,5.000,0
"03/03/08","15:09:04",42180.000,"cc",28330.174,1,0.100,39036.000,0.200,1853.000,0.300,486.000,0.500,569.000,1.000,236.000,5.000,0
"03/03/08","15:09:10",42244.000,"cc",28334.326,1,0.100,39069.000,0.200,1902.000,0.300,444.000,0.500,599.000,1.000,229.000,5.000,1.000
"03/03/08","15:09:16",42547.000,"cc",28292.221,1,0.100,39414.000,0.200,1907.000,0.300,460.000,0.500,531.000,1.000,235.000,5.000,0
"03/03/08","15:09:22",42115.000,"cc",28356.715,1,0.100,39042.000,0.200,1911.000,0.300,410.000,0.500,515.000,1.000,237.000,5.000,0
"03/03/08","15:09:28",42144.000,"cc",28253.631,1,0.100,38911.000,0.200,1971.000,0.300,467.000,0.500,577.000,1.000,218.000,5.000,0
"03/03/08","15:09:34",42171.000,"cc",28326.834,1,0.100,38968.000,0.200,1930.000,0.300,514.000,0.500,529.000,1.000,230.000,5.000,0
"03/03/08","15:09:40",41941.000,"cc",28345.908,1,0.100,38872.000,0.200,1843.000,0.300,427.000,0.500,562.000,1.000,237.000,5.000,0
"03/03/08","15:09:46",42197.000,"cc",28290.219,1,0.100,39049.000,0.200,1852.000,0.300,501.000,0.500,559.000,1.000,236.000,5.000,0
"03/03/08","15:09:52",42192.000,"cc",28324.975,1,0.100,38960.000,0.200,1939.000,0.300,449.000,0.500,579.000,1.000,265.000,5.000,0
"03/03/08","15:09:58",42480.000,"cc",28292.225,1,0.100,39404.000,0.200,1868.000,0.300,482.000,0.500,496.000,1.000,230.000,5.000,0
"03/03/08","15:10:04",42174.000,"cc",28303.787,1,0.100,39012.000,0.200,1918.000,0.300,477.000,0.500,540.000,1.000,227.000,5.000,0
"03/03/08","15:10:10",42139.000,"cc",28289.029,1,0.100,38984.000,0.200,1879.000,0.300,504.000,0.500,540.000,1.000,232.000,5.000,0
"03/03/08","15:10:16",42014.000,"cc",28359.707,1,0.100,38918.000,0.200,1850.000,0.300,467.000,0.500,539.000,1.000,240.000,5.000,0
"03/03/08","15:10:22",42205.000,"cc",28298.555,1,0.100,38988.000,0.200,1950.000,0.300,474.000,0.500,541.000,1.000,252.000,5.000,0
"03/03/08","15:10:28",42533.000,"cc",28284.883,1,0.100,39262.000,0.200,1971.000,0.300,494.000,0.500,552.000,1.000,254.000,5.000,0
"03/03/08","15:10:34",42142.000,"cc",28334.791,1,0.100,38995.000,0.200,1871.000,0.300,471.000,0.500,572.000,1.000,233.000,5.000,0
"03/03/08","15:10:40",42404.000,"cc",28375.633,1,0.100,39194.000,0.200,1865.000,0.300,517.000,0.500,573.000,1.000,255.000,5.000,0
"03/03/08","15:10:46",42218.000,"cc",28328.795,1,0.100,39063.000,0.200,1915.000,0.300,493.000,0.500,555.000,1.000,192.000,5.000,0
"03/03/08","15:10:52",41783.000,"cc",28294.711,1,0.100,38718.000,0.200,1856.000,0.300,442.000,0.500,550.000,1.000,217.000,5.000,0
"03/03/08","15:10:58",42335.000,"cc",28329.440,1,0.100,39203.000,0.200,1912.000,0.300,452.000,0.500,562.000,1.000,206.000,5.000,0
"03/03/08","15:11:04",42350.000,"cc",28275.336,1,0.100,39235.000,0.200,1883.000,0.300,477.000,0.500,510.000,1.000,245.000,5.000,0
"03/03/08","15:11:10",41639.000,"cc",28325.190,1,0.100,38642.000,0.200,1862.000,0.300,405.000,0.500,512.000,1.000,218.000,5.000,0
"03/03/08","15:11:16",42007.000,"cc",28363.736,1,0.100,38853.000,0.200,1908.000,0.300,449.000,0.500,530.000,1.000,267.000,5.000,0
"03/03/08","15:11:22",42509.000,"cc",28283.031,1,0.100,39382.000,0.200,1852.000,0.300,463.000,0.500,533.000,1.000,279.000,5.000,0
"03/03/08","15:11:28",42406.000,"cc",28341.611,1,0.100,39383.000,0.200,1819.000,0.300,440.000,0.500,535.000,1.000,229.000,5.000,0
"03/03/08","15:11:34",41876.000,"cc",28314.268,1,0.100,38792.000,0.200,1879.000,0.300,453.000,0.500,503.000,1.000,249.000,5.000,0
"03/03/08","15:11:40",42154.000,"cc",28247.887,1,0.100,38928.000,0.200,1912.000,0.300,489.000,0.500,563.000,1.000,261.000,5.000,1.000
"03/03/08","15:11:46",42400.000,"cc",28324.316,1,0.100,39314.000,0.200,1883.000,0.300,470.000,0.500,506.000,1.000,227.000,5.000,0
"03/03/08","15:11:52",42016.000,"cc",28336.332,1,0.100,38896.000,0.200,1875.000,0.300,475.000,0.500,533.000,1.000,237.000,5.000,0
"03/03/08","15:11:58",42096.000,"cc",28350.467,1,0.100,38979.000,0.200,1922.000,0.300,461.000,0.500,517.000,1.000,217.000,5.000,0
"03/03/08","15:12:04",42247.000,"cc",28333.512,1,0.100,39135.000,0.200,1855.000,0.300,457.000,0.500,567.000,1.000,233.000,5.000,0
"03/03/08","15:12:10",41868.000,"cc",28326.182,1,0.100,38720.000,0.200,1935.000,0.300,467.000,0.500,504.000,1.000,242.000,5.000,0
"03/03/08","15:12:16",42358.000,"cc",28276.656,1,0.100,39228.000,0.200,1905.000,0.300,427.000,0.500,565.000,1.000,233.000,5.000,0
"03/03/08","15:12:22",42177.000,"cc",28327.607,1,0.100,38996.000,0.200,1913.000,0.300,434.000,0.500,577.000,1.000,257.000,5.000,0
"03/03/08","15:12:28",41921.000,"cc",28363.607,1,0.100,38796.000,0.200,1892.000,0.300,454.000,0.500,555.000,1.000,224.000,5.000,0
"03/03/08","15:12:34",42220.000,"cc",28271.861,1,0.100,39068.000,0.200,1870.000,0.300,455.000,0.500,580.000,1.000,247.000,5.000,0
"03/03/08","15:12:40",42143.000,"cc",28320.557,1,0.100,38981.000,0.200,1893.000,0.300,482.000,0.500,548.000,1.000,239.000,5.000,0
"03/03/08","15:12:46",42109.000,"cc",28332.789,1,0.100,38941.000,0.200,1928.000,0.300,464.000,0.500,533.000,1.000,243.000,5.000,0
"03/03/08","15:12:52",41725.000,"cc",28302.016,1,0.100,38547.000,0.200,1913.000,0.300,463.000,0.500,560.000,1.000,242.000,5.000,0
"03/03/08","15:12:58",42219.000,"cc",28293.141,1,0.100,39052.000,0.200,1909.000,0.300,465.000,0.500,550.000,1.000,243.000,5.000,0
"03/03/08","15:13:04",42443.000,"cc",28313.238,1,0.100,39333.000,0.200,1910.000,0.300,458.000,0.500,517.000,1.000,225.000,5.000,0
"03/03/08","15:13:10",42470.000,"cc",28305.719,1,0.100,39292.000,0.200,1938.000,0.300,454.000,0.500,546.000,1.000,240.000,5.000,0
"03/03/08","15:13:16",42518.000,"cc",28360.225,1,0.100,39444.000,0.200,1838.000,0.300,450.000,0.500,548.000,1.000,238.000,5.000,0
"03/03/08","15:13:22",42243.000,"cc",28336.328,1,0.100,39148.000,0.200,1861.000,0.300,428.000,0.500,538.000,1.000,268.000,5.000,0
"03/03/08","15:13:28",42212.000,"cc",28319.867,1,0.100,39079.000,0.200,1894.000,0.300,452.000,0.500,562.000,1.000,225.000,5.000,0
"03/03/08","15:13:34",41930.000,"cc",28262.924,1,0.100,38802.000,0.200,1851.000,0.300,449.000,0.500,588.000,1.000,240.000,5.000,0
"03/03/08","15:13:40",42004.000,"cc",28353.184,1,0.100,38920.000,0.200,1905.000,0.300,445.000,0.500,515.000,1.000,219.000,5.000,0
"03/03/08","15:13:46",41790.000,"cc",28320.791,1,0.100,38460.000,0.200,2018.000,0.300,491.000,0.500,534.000,1.000,287.000,5.000,0
"03/03/08","15:13:52",42519.000,"cc",28317.039,1,0.100,39349.000,0.200,1958.000,0.300,452.000,0.500,519.000,1.000,241.000,5.000,0
"03/03/08","15:13:58",42090.000,"cc",28302.881,1,0.100,38978.000,0.200,1931.000,0.300,430.000,0.500,527.000,1.000,224.000,5.000,0
"03/03/08","15:14:04",42158.000,"cc",28342.877,1,0.100,39025.000,0.200,1942.000,0.300,433.000,0.500,535.000,1.000,223.000,5.000,0
"03/03/08","15:14:10",42458.000,"cc",28291.488,1,0.100,39252.000,0.200,1945.000,0.300,508.000,0.500,514.000,1.000,239.000,5.000,0
"03/03/08","15:14:16",42589.000,"cc",28321.250,1,0.100,39396.000,0.200,1930.000,0.300,497.000,0.500,537.000,1.000,229.000,5.000,0
"03/03/08","15:14:22",42219.000,"cc",28320.283,1,0.100,39031.000,0.200,1909.000,0.300,479.000,0.500,576.000,1.000,224.000,5.000,0
"03/03/08","15:14:28",42439.000,"cc",28285.455,1,0.100,39334.000,0.200,1894.000,0.300,433.000,0.500,522.000,1.000,256.000,5.000,0
"03/03/08","15:14:34",42079.000,"cc",28344.313,1,0.100,38940.000,0.200,1937.000,0.300,435.000,0.500,533.000,1.000,234.000,5.000,0
"03/03/08","15:14:40",42485.000,"cc",28358.072,1,0.100,39287.000,0.200,1909.000,0.300,477.000,0.500,530.000,1.000,282.000,5.000,0
"03/03/08","15:14:46",42313.000,"cc",28345.633,1,0.100,39169.000,0.200,1907.000,0.300,446.000,0.500,550.000,1.000,241.000,5.000,0
"03/03/08","15:14:52",42448.000,"cc",28263.277,1,0.100,39271.000,0.200,1903.000,0.300,486.000,0.500,556.000,1.000,232.000,5.000,0
"03/03/08","15:14:58",42960.000,"cc",28269.176,1,0.100,39717.000,0.200,1935.000,0.300,516.000,0.500,566.000,1.000,226.000,5.000,0
"03/03/08","15:15:04",42535.000,"cc",28291.016,1,0.100,39412.000,0.200,1919.000,0.300,454.000,0.500,513.000,1.000,237.000,5.000,0
"03/03/08","15:15:10",41940.000,"cc",28324.639,1,0.100,38791.000,0.200,1867.000,0.300,471.000,0.500,575.000,1.000,236.000,5.000,0
"03/03/08","15:15:16",42366.000,"cc",28349.986,1,0.100,39213.000,0.200,1921.000,0.300,450.000,0.500,530.000,1.000,252.000,5.000,0
"03/03/08","15:15:22",43043.000,"cc",28275.824,1,0.100,39848.000,0.200,1966.000,0.300,466.000,0.500,524.000,1.000,239.000,5.000,0
"03/03/08","15:15:28",42286.000,"cc",28354.555,1,0.100,39126.000,0.200,1869.000,0.300,468.000,0.500,572.000,1.000,251.000,5.000,0
"03/03/08","15:15:34",42781.000,"cc",28278.457,1,0.100,39628.000,0.200,1944.000,0.300,469.000,0.500,514.000,1.000,226.000,5.000,0
"03/03/08","15:15:40",42793.000,"cc",28301.397,1,0.100,39719.000,0.200,1888.000,0.300,438.000,0.500,528.000,1.000,220.000,5.000,0
"03/03/08","15:15:46",42551.000,"cc",28332.129,1,0.100,39406.000,0.200,1988.000,0.300,408.000,0.500,513.000,1.000,236.000,5.000,0
"03/03/08","15:15:52",42014.000,"cc",28316.104,1,0.100,38756.000,0.200,1963.000,0.300,493.000,0.500,562.000,1.000,240.000,5.000,0
"03/03/08","15:15:58",42423.000,"cc",28345.465,1,0.100,39255.000,0.200,1873.000,0.300,491.000,0.500,541.000,1.000,263.000,5.000,0
"03/03/08","15:16:04",42869.000,"cc",28328.779,1,0.100,39675.000,0.200,1978.000,0.300,482.000,0.500,544.000,1.000,190.000,5.000,0
"03/03/08","15:16:10",42547.000,"cc",28291.639,1,0.100,39338.000,0.200,1950.000,0.300,466.000,0.500,549.000,1.000,244.000,5.000,0
"03/03/08","15:16:16",42836.000,"cc",28340.992,1,0.100,39546.000,0.200,1961.000,0.300,495.000,0.500,572.000,1.000,262.000,5.000,0
"03/03/08","15:16:22",42552.000,"cc",28305.272,1,0.100,39438.000,0.200,1871.000,0.300,443.000,0.500,534.000,1.000,265.000,5.000,1.000
"03/03/08","15:16:28",42552.000,"cc",28334.117,1,0.100,39354.000,0.200,1896.000,0.300,462.000,0.500,584.000,1.000,256.000,5.000,0
"03/03/08","15:16:34",43291.000,"cc",28259.141,1,0.100,40098.000,0.200,1940.000,0.300,490.000,0.500,523.000,1.000,240.000,5.000,0
"03/03/08","15:16:40",42862.000,"cc",28374.516,1,0.100,39748.000,0.200,1944.000,0.300,445.000,0.500,520.000,1.000,205.000,5.000,0
"03/03/08","15:16:46",42733.000,"cc",28352.973,1,0.100,39515.000,0.200,1968.000,0.300,507.000,0.500,521.000,1.000,222.000,5.000,0
"03/03/08","15:16:52",42474.000,"cc",28326.707,1,0.100,39291.000,0.200,1981.000,0.300,432.000,0.500,557.000,1.000,213.000,5.000,0
"03/03/08","15:16:58",42931.000,"cc",28291.582,1,0.100,39742.000,0.200,1949.000,0.300,458.000,0.500,539.000,1.000,243.000,5.000,0
"03/03/08","15:17:04",42652.000,"cc",28322.065,1,0.100,39467.000,0.200,1973.000,0.300,457.000,0.500,519.000,1.000,236.000,5.000,0
"03/03/08","15:17:10",43156.000,"cc",28302.211,1,0.100,39930.000,0.200,1981.000,0.300,478.000,0.500,535.000,1.000,232.000,5.000,0
"03/03/08","15:17:16",43052.000,"cc",28359.195,1,0.100,39805.000,0.200,1942.000,0.300,471.000,0.500,556.000,1.000,278.000,5.000,0